Valentine, NE

11:25 AM CST on February 28, 2017 (GMT -0600)
Miller Field

Weather History for KVTN - August, 2014

Change the Weather History Date:

Wednesday, August 27, 2014

  Actual Average Record
Temperature  
Mean Temperature 73 °F 71 °F  
Max Temperature 79 °F 85 °F 104 °F (1962)
Min Temperature 66 °F 56 °F 37 °F (1992)
Degree Days  
Heating Degree Days 0 1  
Month to date heating degree days 2 8  
Since 1 June heating degree days 75 77  
Since 1 July heating degree days 21 16  
Cooling Degree Days 8 7  
Month to date cooling degree days 218 235  
Year to date cooling degree days 620 710  
Since 1 June cooling degree days 559 676  
Growing Degree Days 22 (Base 50)    
Moisture  
Dew Point 66 °F    
Average Humidity 82    
Maximum Humidity 100    
Minimum Humidity 64    
Precipitation  
Precipitation 0.14 in 0.05 in 1.00 in (1941)
Month to date precipitation 2.20 1.98  
Year to date precipitation 18.62 15.91  
Snow  
Snow 0.00 in 0.00 in 0.00 in ()
Month to date snowfall 0.0 0.0  
Since 1 June snowfall 0.0 0.0  
Since 1 July snowfall 0.0 0.0  
Snow Depth 0.00 in    
Sea Level Pressure  
Sea Level Pressure 30.07 in    
Wind  
Wind Speed 8 mph (ESE)    
Max Wind Speed 21 mph    
Max Gust Speed 25 mph    
Visibility 9 miles    
Events Rain , Thunderstorm    
T = Trace of Precipitation, MM = Missing Value Source: NWS Daily Summary

Daily Weather History Graph

Daily Weather History Graph

Search for Another Location

Airport or City:

Trip Planner

Search our weather history database for the weather conditions in past years. The results will help you decide how hot, cold, wet, or windy it might be!

Date:

Astronomy

Aug. 27, 2014 Rise Set
Actual Time 7:01 AM CDT 8:25 PM CDT
Civil Twilight 6:31 AM CDT 8:54 PM CDT
Nautical Twilight 5:56 AM CDT 9:29 PM CDT
Astronomical Twilight 5:18 AM CDT 10:07 PM CDT
Moon 9:03 AM CDT (8/27) 9:13 PM CDT (8/27)
Length of Visible Light 14h 22m
Length of Day
13h 23m
Waxing Crescent, 4% of the Moon is Illuminated
Aug 27
Waxing Crescent
Sep 2
First Quarter
Sep 8
Full
Sep 15
Last Quarter
Sep 24
New

Hourly Weather History & Observations

Time (CDT) Temp. Dew Point Humidity Pressure Visibility Wind Dir Wind Speed Gust Speed Precip Events Conditions
12:52 AM 68.0 °F 64.0 °F 87% 30.08 in 10.0 mi SSE 8.1 mph - N/A   Clear
1:52 AM 66.0 °F 64.0 °F 93% 30.08 in 10.0 mi SSE 6.9 mph - N/A   Clear
2:25 AM 66.0 °F 64.9 °F 96% 30.12 in 10.0 mi SSE 8.1 mph - N/A   Partly Cloudy
2:38 AM 66.9 °F 64.9 °F 93% 30.12 in 10.0 mi SSE 5.8 mph - N/A   Mostly Cloudy
2:52 AM 66.9 °F 66.0 °F 97% 30.07 in 10.0 mi SE 5.8 mph - N/A   Overcast
3:52 AM 68.0 °F 66.0 °F 93% 30.06 in 9.0 mi South 10.4 mph - N/A   Overcast
4:52 AM 68.0 °F 66.0 °F 93% 30.07 in 9.0 mi SE 6.9 mph - N/A   Overcast
5:21 AM 68.0 °F 66.0 °F 93% 30.12 in 7.0 mi SSE 4.6 mph - N/A   Overcast
5:52 AM 68.0 °F 66.9 °F 96% 30.06 in 7.0 mi SE 5.8 mph - N/A   Overcast
5:59 AM 68.0 °F 66.9 °F 96% 30.12 in 7.0 mi SSE 4.6 mph - N/A   Overcast
6:52 AM 68.0 °F 66.9 °F 96% 30.06 in 7.0 mi East 4.6 mph - N/A   Overcast
7:23 AM 68.0 °F 66.9 °F 96% 30.12 in 5.0 mi East 5.8 mph - N/A   Overcast
7:41 AM 68.0 °F 66.9 °F 96% 30.12 in 5.0 mi ESE 4.6 mph - N/A   Overcast
7:52 AM 68.0 °F 66.9 °F 96% 30.07 in 6.0 mi ESE 3.5 mph - N/A   Overcast
8:30 AM 70.0 °F 66.0 °F 87% 30.12 in 10.0 mi SE 4.6 mph - N/A   Mostly Cloudy
8:40 AM 69.1 °F 66.9 °F 93% 30.12 in 10.0 mi ESE 4.6 mph - N/A   Mostly Cloudy
8:52 AM 70.0 °F 66.9 °F 90% 30.07 in 10.0 mi Calm Calm - N/A   Overcast
9:08 AM 70.0 °F 66.9 °F 90% 30.12 in 10.0 mi East 4.6 mph - N/A   Overcast
9:24 AM 70.0 °F 66.9 °F 90% 30.11 in 10.0 mi East 5.8 mph - N/A   Overcast
9:52 AM 70.0 °F 66.9 °F 90% 30.07 in 10.0 mi East 5.8 mph - N/A   Overcast
10:52 AM 71.1 °F 66.0 °F 84% 30.09 in 10.0 mi SE 8.1 mph - N/A   Overcast
10:59 AM 72.0 °F 66.0 °F 81% 30.14 in 10.0 mi SE 6.9 mph - N/A   Overcast
11:52 AM 75.9 °F 66.9 °F 74% 30.07 in 10.0 mi SE 6.9 mph - N/A   Overcast
12:02 PM 75.0 °F 66.9 °F 76% 30.12 in 10.0 mi ESE 8.1 mph - N/A Thunderstorm Overcast
12:20 PM 75.0 °F 66.0 °F 73% 30.12 in 10.0 mi ESE 9.2 mph - N/A   Overcast
12:52 PM 75.0 °F 66.0 °F 73% 30.07 in 10.0 mi ESE 9.2 mph - N/A   Overcast
1:30 PM 73.9 °F 66.9 °F 79% 30.11 in 10.0 mi East 9.2 mph - 0.00 in   Overcast
1:52 PM 75.2 °F 66.2 °F 73% 30.10 in 10.0 mi ENE 12.7 mph - N/A   Overcast
2:23 PM 78.1 °F 64.9 °F 64% 30.10 in 10.0 mi SSE 16.1 mph - N/A   Mostly Cloudy
2:52 PM 77.0 °F 64.0 °F 64% 30.04 in 10.0 mi SSE 12.7 mph - N/A   Scattered Clouds
3:52 PM 77.0 °F 64.9 °F 66% 30.01 in 10.0 mi SE 16.1 mph - N/A   Clear
4:52 PM 71.6 °F 68.0 °F 88% 30.05 in 10.0 mi SSE 15.0 mph - N/A Rain Light Rain
5:52 PM 75.0 °F 66.9 °F 76% 29.99 in 10.0 mi South 16.1 mph - 0.00 in   Overcast
5:59 PM 75.0 °F 66.9 °F 76% 30.03 in 10.0 mi South 13.8 mph - N/A   Mostly Cloudy
6:52 PM 73.0 °F 66.0 °F 79% 29.99 in 10.0 mi SSE 12.7 mph - N/A   Overcast
7:52 PM 70.0 °F 68.0 °F 93% 30.00 in 10.0 mi SE 4.6 mph - 0.01 in Rain Light Rain
8:52 PM 70.0 °F 68.0 °F 93% 30.01 in 10.0 mi Calm Calm - 0.04 in Rain Light Rain
9:52 PM 69.1 °F 68.0 °F 96% 30.01 in 3.0 mi ENE 8.1 mph - 0.08 in Rain Heavy Rain
10:23 PM 69.1 °F 68.0 °F 96% 30.05 in 10.0 mi East 6.9 mph - 0.01 in Rain Light Rain
10:49 PM 68.0 °F 68.0 °F 100% 30.04 in 10.0 mi East 9.2 mph - 0.01 in   Mostly Cloudy
10:52 PM 68.0 °F 66.9 °F 96% 29.99 in 10.0 mi East 9.2 mph - 0.01 in   Scattered Clouds
11:20 PM 68.0 °F 68.0 °F 100% 30.03 in 10.0 mi East 8.1 mph - N/A   Partly Cloudy
11:41 PM 68.0 °F 68.0 °F 100% 30.02 in 9.0 mi East 6.9 mph - N/A   Mostly Cloudy
11:52 PM 68.0 °F 68.0 °F 100% 29.96 in 7.0 mi East 9.2 mph - N/A   Overcast